<?xml version="1.0" encoding="UTF-8" standalone="no" ?>
<gpx xmlns="http://www.topografix.com/GPX/1/1" xmlns:xsi="http://www.w3.org/2001/XMLSchema-instance" xsi:schemaLocation="http://www.topografix.com/GPX/1/1 http://www.topografix.com/GPX/1/1/gpx.xsd" version="1.1" creator="VisuGPX - https://www.visugpx.com">
  <metadata>
    <name>De Thury à Clécy</name>
    <desc><![CDATA[voie verte suisse normande trace 1, 2,3, 4, 5]]></desc>
  </metadata>
  <trk>
    <name><![CDATA[Paths/Thury_conde]]></name>
    <trkseg>
      <trkpt lat="48.95291" lon="-0.50247">
        <ele>35.7</ele>
        <time>2018-07-10T10:49:53Z</time>
      </trkpt>
      <trkpt lat="48.95304" lon="-0.5023">
        <ele>35.1</ele>
        <time>2018-07-10T10:49:53Z</time>
      </trkpt>
      <trkpt lat="48.95319" lon="-0.50206">
        <ele>35.8</ele>
        <time>2018-07-10T10:49:53Z</time>
      </trkpt>
      <trkpt lat="48.95331" lon="-0.50183">
        <ele>35.1</ele>
        <time>2018-07-10T10:49:53Z</time>
      </trkpt>
      <trkpt lat="48.95337" lon="-0.50171">
        <ele>35.3</ele>
        <time>2018-07-10T10:49:53Z</time>
      </trkpt>
      <trkpt lat="48.95348" lon="-0.50148">
        <ele>35.5</ele>
        <time>2018-07-10T10:49:53Z</time>
      </trkpt>
      <trkpt lat="48.95355" lon="-0.50125">
        <ele>35</ele>
        <time>2018-07-10T10:49:53Z</time>
      </trkpt>
      <trkpt lat="48.95361" lon="-0.50101">
        <ele>34</ele>
        <time>2018-07-10T10:49:53Z</time>
      </trkpt>
      <trkpt lat="48.95368" lon="-0.50066">
        <ele>32.7</ele>
        <time>2018-07-10T10:49:53Z</time>
      </trkpt>
      <trkpt lat="48.95376" lon="-0.50027">
        <ele>30.9</ele>
        <time>2018-07-10T10:49:53Z</time>
      </trkpt>
      <trkpt lat="48.95382" lon="-0.49985">
        <ele>32.4</ele>
        <time>2018-07-10T10:49:53Z</time>
      </trkpt>
      <trkpt lat="48.95391" lon="-0.49925">
        <ele>29.1</ele>
        <time>2018-07-10T10:49:53Z</time>
      </trkpt>
      <trkpt lat="48.95402" lon="-0.49854">
        <ele>28.3</ele>
        <time>2018-07-10T10:49:53Z</time>
      </trkpt>
      <trkpt lat="48.95419" lon="-0.4974">
        <ele>32.3</ele>
        <time>2018-07-10T10:49:53Z</time>
      </trkpt>
      <trkpt lat="48.95446" lon="-0.49566">
        <ele>32.4</ele>
        <time>2018-07-10T10:49:53Z</time>
      </trkpt>
      <trkpt lat="48.95462" lon="-0.49455">
        <ele>31.8</ele>
        <time>2018-07-10T10:49:53Z</time>
      </trkpt>
      <trkpt lat="48.95478" lon="-0.49356">
        <ele>31.8</ele>
        <time>2018-07-10T10:49:53Z</time>
      </trkpt>
      <trkpt lat="48.95492" lon="-0.49278">
        <ele>31.4</ele>
        <time>2018-07-10T10:49:53Z</time>
      </trkpt>
      <trkpt lat="48.95505" lon="-0.49221">
        <ele>32</ele>
        <time>2018-07-10T10:49:53Z</time>
      </trkpt>
      <trkpt lat="48.95515" lon="-0.49178">
        <ele>31.3</ele>
        <time>2018-07-10T10:49:53Z</time>
      </trkpt>
      <trkpt lat="48.95534" lon="-0.49115">
        <ele>31.3</ele>
        <time>2018-07-10T10:49:53Z</time>
      </trkpt>
      <trkpt lat="48.95551" lon="-0.49069">
        <ele>31.7</ele>
        <time>2018-07-10T10:49:53Z</time>
      </trkpt>
      <trkpt lat="48.95572" lon="-0.4902">
        <ele>31.6</ele>
        <time>2018-07-10T10:49:53Z</time>
      </trkpt>
      <trkpt lat="48.95597" lon="-0.4897">
        <ele>31.5</ele>
        <time>2018-07-10T10:49:53Z</time>
      </trkpt>
      <trkpt lat="48.95626" lon="-0.48917">
        <ele>31.5</ele>
        <time>2018-07-10T10:49:53Z</time>
      </trkpt>
      <trkpt lat="48.95654" lon="-0.48866">
        <ele>32</ele>
        <time>2018-07-10T10:49:53Z</time>
      </trkpt>
      <trkpt lat="48.95698" lon="-0.48791">
        <ele>31.5</ele>
        <time>2018-07-10T10:49:53Z</time>
      </trkpt>
      <trkpt lat="48.95792" lon="-0.4863">
        <ele>31</ele>
        <time>2018-07-10T10:49:53Z</time>
      </trkpt>
      <trkpt lat="48.95878" lon="-0.48484">
        <ele>30.1</ele>
        <time>2018-07-10T10:49:53Z</time>
      </trkpt>
      <trkpt lat="48.95914" lon="-0.48419">
        <ele>31.7</ele>
        <time>2018-07-10T10:49:53Z</time>
      </trkpt>
      <trkpt lat="48.95957" lon="-0.48347">
        <ele>32.1</ele>
        <time>2018-07-10T10:49:53Z</time>
      </trkpt>
      <trkpt lat="48.95972" lon="-0.48321">
        <ele>32.1</ele>
        <time>2018-07-10T10:49:53Z</time>
      </trkpt>
      <trkpt lat="48.95992" lon="-0.48289">
        <ele>33.4</ele>
        <time>2018-07-10T10:49:53Z</time>
      </trkpt>
      <trkpt lat="48.96021" lon="-0.48242">
        <ele>32.8</ele>
        <time>2018-07-10T10:49:53Z</time>
      </trkpt>
      <trkpt lat="48.96037" lon="-0.48219">
        <ele>33.4</ele>
        <time>2018-07-10T10:49:53Z</time>
      </trkpt>
      <trkpt lat="48.96058" lon="-0.48194">
        <ele>33.2</ele>
        <time>2018-07-10T10:49:53Z</time>
      </trkpt>
      <trkpt lat="48.96111" lon="-0.48138">
        <ele>31.9</ele>
        <time>2018-07-10T10:49:53Z</time>
      </trkpt>
      <trkpt lat="48.96147" lon="-0.48113">
        <ele>32.4</ele>
        <time>2018-07-10T10:49:53Z</time>
      </trkpt>
      <trkpt lat="48.96152" lon="-0.48109">
        <ele>32.3</ele>
        <time>2018-07-10T10:49:53Z</time>
      </trkpt>
      <trkpt lat="48.96184" lon="-0.48091">
        <ele>31.7</ele>
        <time>2018-07-10T10:49:53Z</time>
      </trkpt>
      <trkpt lat="48.96211" lon="-0.48078">
        <ele>32</ele>
        <time>2018-07-10T10:49:53Z</time>
      </trkpt>
      <trkpt lat="48.96244" lon="-0.48066">
        <ele>31.9</ele>
        <time>2018-07-10T10:49:53Z</time>
      </trkpt>
      <trkpt lat="48.96273" lon="-0.48058">
        <ele>32.8</ele>
        <time>2018-07-10T10:49:53Z</time>
      </trkpt>
      <trkpt lat="48.96307" lon="-0.48054">
        <ele>32.8</ele>
        <time>2018-07-10T10:49:53Z</time>
      </trkpt>
      <trkpt lat="48.96335" lon="-0.48054">
        <ele>32.9</ele>
        <time>2018-07-10T10:49:53Z</time>
      </trkpt>
      <trkpt lat="48.96364" lon="-0.48056">
        <ele>33.1</ele>
        <time>2018-07-10T10:49:53Z</time>
      </trkpt>
      <trkpt lat="48.96468" lon="-0.48078">
        <ele>33.3</ele>
        <time>2018-07-10T10:49:53Z</time>
      </trkpt>
      <trkpt lat="48.96761" lon="-0.48148">
        <ele>33.6</ele>
        <time>2018-07-10T10:49:53Z</time>
      </trkpt>
      <trkpt lat="48.96822" lon="-0.48164">
        <ele>33.5</ele>
        <time>2018-07-10T10:49:53Z</time>
      </trkpt>
      <trkpt lat="48.9689" lon="-0.48181">
        <ele>34</ele>
        <time>2018-07-10T10:49:53Z</time>
      </trkpt>
      <trkpt lat="48.97141" lon="-0.48242">
        <ele>29.8</ele>
        <time>2018-07-10T10:49:53Z</time>
      </trkpt>
      <trkpt lat="48.97164" lon="-0.48248">
        <ele>30.7</ele>
        <time>2018-07-10T10:49:53Z</time>
      </trkpt>
      <trkpt lat="48.9719" lon="-0.48254">
        <ele>30.1</ele>
        <time>2018-07-10T10:49:53Z</time>
      </trkpt>
      <trkpt lat="48.97195" lon="-0.48255">
        <ele>30</ele>
        <time>2018-07-10T10:49:53Z</time>
      </trkpt>
      <trkpt lat="48.97243" lon="-0.48263">
        <ele>29</ele>
        <time>2018-07-10T10:49:53Z</time>
      </trkpt>
      <trkpt lat="48.97264" lon="-0.48264">
        <ele>28.7</ele>
        <time>2018-07-10T10:49:53Z</time>
      </trkpt>
      <trkpt lat="48.97309" lon="-0.4826">
        <ele>28.1</ele>
        <time>2018-07-10T10:49:53Z</time>
      </trkpt>
      <trkpt lat="48.97335" lon="-0.48253">
        <ele>29.6</ele>
        <time>2018-07-10T10:49:53Z</time>
      </trkpt>
      <trkpt lat="48.97361" lon="-0.48243">
        <ele>28.2</ele>
        <time>2018-07-10T10:49:53Z</time>
      </trkpt>
      <trkpt lat="48.97388" lon="-0.48229">
        <ele>28.5</ele>
        <time>2018-07-10T10:49:53Z</time>
      </trkpt>
      <trkpt lat="48.97415" lon="-0.48213">
        <ele>28.3</ele>
        <time>2018-07-10T10:49:53Z</time>
      </trkpt>
      <trkpt lat="48.97513" lon="-0.48141">
        <ele>26.7</ele>
        <time>2018-07-10T10:49:53Z</time>
      </trkpt>
      <trkpt lat="48.97545" lon="-0.48119">
        <ele>28.1</ele>
        <time>2018-07-10T10:49:53Z</time>
      </trkpt>
      <trkpt lat="48.97573" lon="-0.48103">
        <ele>28.4</ele>
        <time>2018-07-10T10:49:53Z</time>
      </trkpt>
      <trkpt lat="48.97577" lon="-0.48101">
        <ele>28.2</ele>
        <time>2018-07-10T10:49:53Z</time>
      </trkpt>
      <trkpt lat="48.97596" lon="-0.48092">
        <ele>28.2</ele>
        <time>2018-07-10T10:49:53Z</time>
      </trkpt>
      <trkpt lat="48.97627" lon="-0.48083">
        <ele>29.6</ele>
        <time>2018-07-10T10:49:53Z</time>
      </trkpt>
      <trkpt lat="48.97653" lon="-0.48078">
        <ele>29.9</ele>
        <time>2018-07-10T10:49:53Z</time>
      </trkpt>
      <trkpt lat="48.9768" lon="-0.48077">
        <ele>30</ele>
        <time>2018-07-10T10:49:53Z</time>
      </trkpt>
      <trkpt lat="48.97711" lon="-0.4808">
        <ele>30.1</ele>
        <time>2018-07-10T10:49:53Z</time>
      </trkpt>
      <trkpt lat="48.97746" lon="-0.48086">
        <ele>29.9</ele>
        <time>2018-07-10T10:49:53Z</time>
      </trkpt>
      <trkpt lat="48.97771" lon="-0.48091">
        <ele>29.9</ele>
        <time>2018-07-10T10:49:53Z</time>
      </trkpt>
      <trkpt lat="48.97826" lon="-0.48102">
        <ele>29.3</ele>
        <time>2018-07-10T10:49:53Z</time>
      </trkpt>
      <trkpt lat="48.97889" lon="-0.48114">
        <ele>30</ele>
        <time>2018-07-10T10:49:53Z</time>
      </trkpt>
      <trkpt lat="48.97959" lon="-0.48133">
        <ele>29.2</ele>
        <time>2018-07-10T10:49:53Z</time>
      </trkpt>
      <trkpt lat="48.98028" lon="-0.48148">
        <ele>29</ele>
        <time>2018-07-10T10:49:53Z</time>
      </trkpt>
      <trkpt lat="48.98434" lon="-0.48236">
        <ele>26</ele>
        <time>2018-07-10T10:49:53Z</time>
      </trkpt>
    </trkseg>
  </trk>
</gpx>